Date String (YYYY-MM-DD hh:mm:ss) UTC,Instrument flags,Ambient pressure (hPa),Sample flow (lpm),Bypass flow (lpm),Sample temperature (°C),Ambient temperature (°C),ASC tube jacket temperature (°C),LED temperature (°C),Box temperature (°C),Sample RH (%),Span deviation,Mass concentration (μg/m³),Mass concentration (μg/m³),Mass concentration (μg/m³)
DateTimeUTC,F1_M11,P_M11,Q1_M11,Q2_M11,T1_M11,T2_M11,T3_M11,T4_M11,T5_M11,U1_M11,ZSPAN_M11,X0_M11,X2_M11,X1_M11
2023-01-06 20:00:00,,0822.1,5.01,0.00,23.4,22.4,00.0,32.1,25.1,11.1,0000.0,0002.33,0001.53,0001.34
2023-01-06 20:01:00,,0822.1,5.01,0.00,23.4,22.4,00.0,32.1,25.2,11.3,0000.0,0002.91,0001.57,0001.37
2023-01-06 20:02:00,,0822.1,5.00,0.00,23.4,22.4,00.0,32.1,25.2,10.7,0000.0,0002.93,0001.60,0001.40
2023-01-06 20:03:00,,0822.1,4.99,0.00,23.4,22.4,00.0,32.1,25.2,10.8,0000.0,0002.92,0001.62,0001.43
2023-01-06 20:04:00,,0822.0,4.99,0.00,23.5,22.4,00.0,32.1,25.2,10.6,0000.0,0003.06,0001.66,0001.45
2023-01-06 20:05:00,,0822.0,4.99,0.00,23.5,22.5,00.0,32.1,25.2,11.0,0000.0,0003.08,0001.68,0001.47
2023-01-06 20:06:00,,0822.0,5.01,0.00,23.5,22.5,00.0,32.2,25.2,10.9,0000.0,0003.14,0001.69,0001.48
2023-01-06 20:07:00,,0822.0,5.00,0.00,23.5,22.5,00.0,32.2,25.2,10.8,0000.0,0003.20,0001.74,0001.48
2023-01-06 20:08:00,,0822.0,5.00,0.00,23.5,22.5,00.0,32.2,25.3,10.6,0000.0,0003.23,0001.75,0001.49
2023-01-06 20:09:00,,0822.0,4.99,0.00,23.5,22.5,00.0,32.2,25.3,10.6,0000.0,0003.48,0001.81,0001.49
2023-01-06 20:10:00,,0822.0,5.01,0.00,23.6,22.5,00.0,32.2,25.3,10.7,0000.0,0003.66,0001.87,0001.50
2023-01-06 20:11:00,,0822.1,5.00,0.00,23.6,22.5,00.0,32.3,25.3,10.8,0000.0,0003.76,0001.86,0001.50
2023-01-06 20:12:00,,0822.1,5.00,0.00,23.6,22.6,00.0,32.3,25.3,10.9,0000.0,0003.23,0001.83,0001.49
2023-01-06 20:13:00,,0822.1,5.00,0.00,23.6,22.6,00.0,32.3,25.4,11.1,0000.0,0003.57,0001.84,0001.50
2023-01-06 20:14:00,,0822.1,4.99,0.00,23.6,22.6,00.0,32.3,25.5,10.8,0000.0,0003.82,0001.85,0001.51
2023-01-06 20:15:00,,0822.1,4.99,0.00,23.7,22.6,00.0,32.3,25.5,10.6,0000.0,0003.77,0001.87,0001.53
2023-01-06 20:16:00,,0822.1,5.00,0.00,23.7,22.7,00.0,32.3,25.5,10.7,0000.0,0003.75,0001.87,0001.56
2023-01-06 20:17:00,,0822.1,5.00,0.00,23.7,22.7,00.0,32.4,25.5,10.7,0000.0,0003.71,0001.90,0001.58
2023-01-06 20:18:00,,0822.1,5.00,0.00,23.7,22.7,00.0,32.4,25.5,10.6,0000.0,0003.66,0001.87,0001.61
2023-01-06 20:19:00,,0822.1,5.00,0.00,23.7,22.7,00.0,32.4,25.5,10.5,0000.0,0003.82,0001.95,0001.66
2023-01-06 20:20:00,,0822.1,5.00,0.00,23.8,22.8,00.0,32.4,25.6,10.6,0000.0,0003.80,0002.00,0001.71
2023-01-06 20:21:00,,0822.1,4.98,0.00,23.8,22.8,00.0,32.4,25.6,10.6,0000.0,0003.76,0002.02,0001.76
2023-01-06 20:22:00,,0822.1,5.01,0.00,23.8,22.8,00.0,32.4,25.6,10.6,0000.0,0003.95,0002.11,0001.83
2023-01-06 20:23:00,,0822.1,5.01,0.00,23.8,22.8,00.0,32.5,25.6,10.8,0000.0,0004.66,0002.25,0001.92
2023-01-06 20:24:00,,0822.1,5.00,0.00,23.8,22.9,00.0,32.5,25.6,10.8,0000.0,0004.40,0002.34,0002.00
2023-01-06 20:25:00,,0822.1,5.00,0.00,23.9,22.9,00.0,32.5,25.6,10.8,0000.0,0004.18,0002.42,0002.07
2023-01-06 20:26:00,,0822.1,5.00,0.00,23.9,22.9,00.0,32.5,25.7,10.8,0000.0,0004.29,0002.48,0002.11
2023-01-06 20:27:00,,0822.1,5.00,0.00,23.9,22.9,00.0,32.5,25.7,10.6,0000.0,0004.51,0002.56,0002.16
2023-01-06 20:28:00,,0822.1,5.00,0.00,23.9,23.0,00.0,32.6,25.7,10.5,0000.0,0004.67,0002.61,0002.21
2023-01-06 20:29:00,,0822.1,5.00,0.00,23.9,23.0,00.0,32.6,25.8,10.6,0000.0,0004.63,0002.64,0002.24
2023-01-06 20:30:00,,0822.1,5.00,0.00,24.0,23.0,00.0,32.6,25.9,10.8,0000.0,0004.65,0002.68,0002.28
2023-01-06 20:31:00,,0822.1,4.99,0.00,24.0,23.0,00.0,32.6,25.9,11.1,0000.0,0004.61,0002.68,0002.30
2023-01-06 20:32:00,,0822.1,5.00,0.00,24.0,23.1,00.0,32.6,25.9,11.0,0000.0,0004.64,0002.70,0002.32
2023-01-06 20:33:00,,0822.1,5.00,0.00,24.0,23.1,00.0,32.7,25.9,11.3,0000.0,0004.58,0002.73,0002.34
2023-01-06 20:34:00,,0822.1,5.01,0.00,24.0,23.1,00.0,32.7,25.9,11.0,0000.0,0004.05,0002.75,0002.34
2023-01-06 20:35:00,,0822.1,5.00,0.00,24.1,23.1,00.0,32.7,26.0,10.8,0000.0,0004.02,0002.77,0002.36
2023-01-06 20:36:00,,0822.1,5.01,0.00,24.1,23.2,00.0,32.7,26.0,10.8,0000.0,0003.99,0002.77,0002.37
2023-01-06 20:37:00,,0822.1,5.01,0.00,24.1,23.2,00.0,32.8,26.0,10.7,0000.0,0004.04,0002.78,0002.38
2023-01-06 20:38:00,,0822.1,5.00,0.00,24.1,23.2,00.0,32.8,26.0,10.7,0000.0,0004.02,0002.76,0002.39
2023-01-06 20:39:00,,0822.1,5.02,0.00,24.2,23.2,00.0,32.8,26.1,10.7,0000.0,0003.88,0002.76,0002.40
2023-01-06 20:40:00,,0822.1,5.00,0.00,24.2,23.2,00.0,32.8,26.1,10.6,0000.0,0004.16,0002.79,0002.41
2023-01-06 20:41:00,,0822.1,5.01,0.00,24.2,23.3,00.0,32.8,26.1,10.5,0000.0,0004.25,0002.82,0002.43
2023-01-06 20:42:00,,0822.1,4.99,0.00,24.2,23.3,00.0,32.9,26.1,10.5,0000.0,0004.31,0002.86,0002.45
2023-01-06 20:43:00,,0822.1,5.00,0.00,24.3,23.3,00.0,32.9,26.1,10.5,0000.0,0004.28,0002.86,0002.44
2023-01-06 20:44:00,,0822.1,4.99,0.00,24.3,23.3,00.0,32.9,26.2,10.5,0000.0,0004.34,0002.83,0002.43
2023-01-06 20:45:00,,0822.1,5.00,0.00,24.3,23.4,00.0,32.9,26.2,10.5,0000.0,0004.45,0002.83,0002.43
2023-01-06 20:46:00,,0822.1,5.01,0.00,24.3,23.4,00.0,33.0,26.2,10.6,0000.0,0004.40,0002.81,0002.41
2023-01-06 20:47:00,,0822.1,5.01,0.00,24.3,23.4,00.0,33.0,26.2,10.5,0000.0,0004.49,0002.85,0002.42
2023-01-06 20:48:00,,0822.1,5.01,0.00,24.4,23.4,00.0,33.0,26.2,10.6,0000.0,0004.51,0002.88,0002.43
2023-01-06 20:49:00,,0822.1,5.00,0.00,24.4,23.4,00.0,33.0,26.2,10.6,0000.0,0004.42,0002.89,0002.44
2023-01-06 20:50:00,,0822.1,5.00,0.00,24.4,23.4,00.0,33.0,26.2,10.6,0000.0,0004.45,0002.91,0002.46
2023-01-06 20:51:00,,0822.1,5.02,0.00,24.4,23.4,00.0,33.1,26.2,10.6,0000.0,0004.28,0002.91,0002.47
2023-01-06 20:52:00,,0822.2,4.99,0.00,24.4,23.4,00.0,33.1,26.3,10.6,0000.0,0004.20,0002.91,0002.46
2023-01-06 20:53:00,,0822.2,5.01,0.00,24.4,23.5,00.0,33.1,26.3,10.8,0000.0,0004.06,0002.84,0002.44
2023-01-06 20:54:00,,0822.2,5.01,0.00,24.5,23.5,00.0,33.1,26.3,10.6,0000.0,0003.98,0002.80,0002.43
2023-01-06 20:55:00,,0822.1,5.01,0.00,24.5,23.5,00.0,33.1,26.4,10.3,0000.0,0003.93,0002.78,0002.44
2023-01-06 20:56:00,,0822.1,5.00,0.00,24.5,23.5,00.0,33.1,26.4,10.3,0000.0,0003.79,0002.75,0002.45
2023-01-06 20:57:00,,0822.1,5.00,0.00,24.5,23.6,00.0,33.2,26.4,10.4,0000.0,0003.86,0002.76,0002.47
2023-01-06 20:58:00,,0822.1,4.99,0.00,24.5,23.6,00.0,33.2,26.4,10.4,0000.0,0003.81,0002.73,0002.46
2023-01-06 20:59:00,,0822.1,5.00,0.00,24.6,23.6,00.0,33.2,26.4,10.3,0000.0,0003.80,0002.69,0002.45
